Temperature
14 14 14 13 13 14 14 14 14 14 14 14 14 14 14 14 14 14 14 14 15 15 15 15 15 15 15 15 15 15 15 15 15 15 15 14 14 14 15 15 15 15 15
14 13 13 13 13 13 14 14 14 14 14 14 14 14 14 14 14 14 14 14 14 14 14 14 14 15 15 15 15 15 15 15 15 15 14 14 14 14 14 14 14 14 14
13 13 13 13 13 13 13 13 14 14 14 14 14 14 14 14 14 14 14 14 14 14 14 14 14 14 14 15 15 15 15 15 15 14 14 14 14 14 14 14 14 14 14
13 13 13 13 13 13 13 13 13 14 14 14 14 13 13 13 13 13 14 13 13 14 14 14 14 14 14 14 14 14 14 14 14 14 14 14 14 14 14 14 14 14 14
12 12 12 12 13 13 13 13 13 13 13 13 13 13 13 13 13 13 13 13 13 13 14 14 14 14 14 14 14 14 14 14 14 14 14 14 13 13 14 14 14 14 14
12 12 12 12 12 12 13 13 13 13 13 13 13 13 13 13 13 13 13 13 13 13 13 13 13 13 14 14 14 14 14 14 14 13 13 13 13 13 14 14 14 14 13
12 11 12 12 12 12 12 12 12 13 13 13 13 12 12 12 13 13 13 13 13 13 13 13 13 13 13 13 13 13 13 13 13 13 13 13 13 13 13 13 13 13 13
11 11 11 11 11 12 12 12 12 12 12 12 12 12 12 12 12 12 12 12 12 12 12 13 13 13 13 13 13 13 13 13 13 13 13 12 12 13 13 13 13 13 13
11 11 11 11 11 11 11 11 11 12 12 12 12 12 12 12 12 12 12 12 12 12 12 12 12 13 13 13 13 12 12 12 12 12 12 12 12 12 12 12 12 12 12
10 10 10 11 11 11 11 11 11 11 11 11 12 12 12 12 12 12 12 12 12 12 12 12 12 12 12 12 12 12 12 12 12 12 12 12 12 12 12 12 12 12 12
10 10 10 10 10 10 10 10 10 10 11 11 11 11 11 11 11 11 11 12 12 12 12 12 12 12 12 12 12 12 12 12 12 12 12 11 11 11 11 12 11 12 12
10 9 9 10 10 10 10 10 10 10 10 10 10 11 11 11 11 11 11 11 11 12 12 12 12 12 12 12 12 11 11 11 11 11 11 11 11 11 11 11 11 11 11
9 9 9 9 9 9 9 9 9 10 9 10 10 10 10 10 11 11 11 11 11 11 11 11 11 11 11 11 11 11 11 11 11 11 11 11 11 11 11 10 10 10 10
9 9 9 9 9 9 9 9 9 9 9 9 9 9 10 10 10 10 10 11 11 11 11 11 11 11 11 11 11 11 10 10 10 10 10 10 10 10 10 10 10 10 10
8 8 8 8 8 8 8 8 8 8 9 9 9 9 9 9 9 9 10 10 10 10 10 10 10 10 10 10 10 10 10 10 10 10 10 10 10 10 10 10 9 9 9
7 7 7 7 7 7 8 8 8 8 8 8 8 8 8 8 8 9 9 9 9 10 10 10 10 10 10 10 10 10 10 10 9 9 9 9 9 9 9 9 9 9 9
7 7 7 7 7 7 7 7 7 7 7 7 7 7 8 8 8 8 8 8 9 9 9 9 9 9 9 9 9 9 9 9 9 9 9 9 9 9 9 9 9 9 9
6 6 6 6 6 6 6 6 6 6 7 7 7 7 7 7 7 7 8 8 8 8 8 9 9 9 9 9 9 9 9 9 8 8 8 8 8 8 8 8 8 9 8
6 6 6 6 6 6 6 6 6 6 6 6 6 6 6 6 7 7 7 7 7 8 8 8 8 8 8 8 8 8 8 8 8 8 8 8 8 8 8 8 8 8 8
5 5 5 5 5 5 5 5 5 5 5 5 5 6 6 6 6 6 6 6 7 7 7 7 7 7 7 7 7 7 7 7 7 7 7 7 7 7 7 7 7 7 7
4 4 4 5 5 5 5 5 5 5 5 5 5 5 5 5 5 5 5 6 6 6 6 6 6 6 7 7 7 7 7 7 7 7 7 7 7 7 7 7 7 7 7
4 4 4 4 4 4 4 4 4 4 4 4 4 4 4 4 5 5 5 5 5 5 5 6 6 6 6 6 6 6 6 6 6 6 6 6 6 6 6 6 6 6 6
3 3 3 3 3 3 3 3 3 3 3 3 3 3 4 4 4 4 4 4 4 5 5 5 5 5 5 5 5 5 5 5 5 5 6 6 6 6 6 5 6 6 6
2 2 2 2 2 2 3 2 2 2 3 3 3 3 3 3 3 3 3 4 4 4 4 4 4 4 4 4 4 5 5 5 4 5 5 5 5 5 5 5 5 5 5
1 1 1 1 1 2 2 2 2 2 2 2 2 2 2 2 2 3 3 3 3 3 3 3 3 3 3 3 4 4 4 4 4 4 4 5 5 5 5 5 5 5 5
0 1 1 1 1 1 1 1 1 1 1 1 1 2 2 2 2 2 2 2 2 2 3 3 3 3 3 3 3 3 3 3 4 3 3 3 4 4 4 4 4 4 4
Wind_Speed
1 3 0 4 6 8 10 11 11 11 11 11 11 12 13 14 14 14 14 15 15 16 16 17 17 17 18 18 18 18 18 18 18 18 18 18 18 18 18 17 16 16 18
1 1 1 5 7 9 10 10 10 11 11 11 11 11 12 13 14 14 14 14 15 16 16 16 17 17 18 18 17 18 18 18 18 18 17 17 17 18 18 17 16 15 17
1 1 2 5 8 9 10 11 11 11 10 10 11 11 11 13 13 14 14 14 14 15 16 16 16 17 17 17 17 17 17 17 17 17 16 14 15 17 17 17 16 17 17
3 2 3 7 9 9 10 11 11 11 11 10 10 11 11 12 13 13 13 13 14 14 15 16 16 16 16 16 16 16 17 17 16 15 13 13 13 16 17 16 16 17 17
4 4 4 8 9 9 10 10 10 10 10 11 11 11 11 12 12 13 13 13 13 13 14 15 15 16 15 15 15 16 16 16 16 15 14 13 13 15 16 16 16 17 17
5 5 6 8 9 9 10 10 10 10 10 10 11 11 12 12 12 12 13 12 12 12 13 14 14 15 15 14 15 15 15 15 14 14 13 12 12 14 15 15 16 17 17
5 6 6 9 9 9 10 11 10 10 11 11 11 11 12 12 12 12 11 11 12 12 12 13 13 14 14 14 14 14 14 14 14 13 12 12 12 14 14 14 15 15 16
6 6 7 8 9 10 10 10 10 10 10 11 11 11 12 12 12 11 11 11 11 11 11 12 12 13 13 13 13 14 13 12 12 11 11 11 12 13 13 14 14 14 14
7 7 7 7 8 9 10 11 10 10 10 10 11 11 11 11 12 11 10 10 11 11 11 11 12 13 13 13 13 13 13 13 12 10 10 10 11 12 13 13 13 13 13
7 7 7 8 8 9 9 10 10 11 12 12 12 12 12 11 11 11 10 10 10 10 11 11 11 12 13 12 12 12 12 11 11 10 9 9 11 11 12 12 12 12 12
5 5 6 7 8 8 8 9 10 11 12 12 12 12 12 11 11 10 10 10 10 10 10 10 11 11 12 11 11 12 11 10 9 9 8 9 10 11 11 11 12 12 12
3 3 5 6 7 7 7 8 9 10 10 11 11 11 11 10 10 10 11 11 10 10 10 10 10 10 10 10 10 10 10 10 9 7 8 9 9 10 11 11 11 11 11
4 3 3 4 6 6 6 7 7 8 9 9 10 9 9 10 10 10 9 10 10 10 9 9 9 9 9 9 9 9 9 9 8 7 8 9 9 10 10 10 11 11 11
3 3 3 4 5 6 6 6 7 7 7 7 7 8 8 7 7 7 7 8 8 8 8 8 7 8 9 9 9 9 9 8 8 7 7 9 8 9 9 9 10 10 10
3 3 3 4 4 5 6 5 6 6 6 6 6 7 7 6 5 6 6 6 7 7 7 7 6 7 7 7 7 8 7 7 7 7 7 8 8 8 8 8 8 8 9
2 2 2 3 4 5 5 5 5 5 6 6 6 6 6 6 5 5 5 5 6 6 5 6 5 5 5 6 6 6 6 7 7 7 7 7 7 7 7 7 7 7 7
2 2 2 3 4 4 5 5 5 5 5 5 5 5 5 5 5 5 4 4 4 5 6 6 6 5 5 5 5 5 5 6 6 6 6 6 6 7 7 7 6 6 6
2 2 2 3 3 3 4 5 5 5 5 5 5 5 5 5 5 5 4 3 4 5 5 4 4 3 3 3 2 3 4 4 5 5 5 5 5 6 6 6 6 6 6
3 3 3 3 4 3 4 4 5 5 4 4 4 4 4 4 5 5 4 3 4 5 4 3 3 2 2 2 2 2 3 3 3 4 5 5 5 5 5 6 6 6 6
3 3 3 3 3 3 3 4 3 4 3 3 3 3 3 3 4 5 4 4 4 4 3 3 3 3 2 2 2 2 2 2 3 3 3 4 5 5 5 5 5 5 5
3 3 3 3 3 3 2 1 1 1 1 1 2 2 2 2 3 4 3 3 3 3 2 2 2 2 2 1 2 2 2 2 2 2 2 3 4 4 4 4 4 4 3
2 2 2 2 2 2 1 1 1 1 1 1 1 1 1 2 2 3 3 2 2 2 2 2 2 1 1 1 2 2 0 1 1 1 1 1 2 3 3 3 3 3 2
2 1 1 2 2 2 2 2 2 2 2 2 2 1 1 1 1 2 2 2 2 2 1 1 2 2 1 0 1 2 3 3 1 1 0 0 0 1 1 1 2 1 1
1 1 1 1 2 2 3 2 2 1 0 1 1 1 1 0 1 2 2 2 2 2 1 2 2 1 2 1 1 1 1 2 2 1 1 1 1 1 1 1 1 1 1
0 1 1 1 2 2 2 2 1 1 0 1 1 1 1 1 0 1 2 2 2 2 2 2 2 2 1 2 1 0 0 1 1 2 2 2 1 2 2 2 2 2 2
2 2 1 2 1 2 1 1 1 0 1 1 1 1 1 1 1 1 1 2 2 2 2 3 3 3 2 2 1 1 1 1 2 2 3 3 3 2 2 3 3 3 3
Wind_Direction
276 309 321 90 90 93 91 88 86 88 95 101 103 105 103 101 98 97 96 97 97 96 93 90 90 88 85 83 82 80 79 78 79 77 76 78 81 82 83 81 80 79 82
221 264 132 99 95 94 90 87 86 86 91 96 103 107 106 104 101 99 98 97 97 96 93 91 90 89 87 85 83 81 80 80 79 78 75 75 79 82 83 83 83 84 84
86 123 120 103 99 96 93 88 84 84 88 92 98 107 109 105 102 99 96 96 97 96 94 92 91 91 88 87 85 83 83 82 81 79 74 72 79 83 83 83 84 84 84
87 88 103 105 103 99 96 93 89 85 84 87 93 99 107 106 103 98 94 94 95 96 94 92 92 92 91 90 88 87 86 84 80 77 70 70 77 83 82 82 83 84 84
79 77 89 105 106 103 98 95 92 88 85 84 85 91 98 103 102 98 95 94 94 95 95 95 94 94 92 92 91 90 88 85 80 74 70 71 76 85 84 82 82 84 84
76 75 84 102 105 105 100 96 94 92 89 86 85 84 90 94 98 99 96 95 96 98 99 97 96 95 93 93 92 92 91 86 79 74 71 72 77 86 87 84 84 84 83
84 74 84 94 97 102 100 96 94 92 89 86 85 84 84 86 88 94 97 97 95 97 99 99 99 97 95 94 93 92 90 86 79 74 71 73 80 87 89 88 86 86 86
85 74 81 95 92 92 95 97 95 92 91 87 84 83 83 83 82 85 94 95 95 95 98 99 100 99 97 96 94 92 89 85 79 74 72 75 82 89 90 89 89 87 87
79 70 64 79 88 88 88 90 89 89 90 88 85 82 79 80 82 80 84 94 94 95 97 99 101 99 97 96 95 91 88 83 76 74 75 78 83 90 91 91 90 88 88
71 65 62 65 76 81 85 88 85 82 80 80 79 77 74 72 76 77 74 84 92 95 93 95 98 100 96 92 91 89 87 81 71 72 74 81 85 88 91 90 92 90 89
74 60 61 64 67 75 83 88 86 81 77 76 73 74 74 68 66 68 70 73 81 88 89 91 94 97 95 89 88 86 83 76 72 69 73 82 89 89 91 90 91 90 88
112 80 60 67 72 75 79 82 82 80 77 74 72 72 74 72 68 67 67 66 67 72 81 83 88 88 89 84 82 84 78 76 70 65 73 81 89 91 91 89 91 92 90
137 106 77 71 81 82 80 82 81 81 77 74 73 71 76 74 70 66 64 58 59 62 65 72 75 75 80 83 80 79 78 76 68 66 70 79 88 92 93 90 90 92 88
126 123 102 79 83 84 86 85 85 83 81 76 76 77 78 73 67 65 64 60 59 62 63 63 71 74 75 80 83 80 77 74 68 65 67 76 85 91 92 91 89 90 89
134 135 121 95 94 93 90 86 83 85 85 84 82 82 87 83 75 69 64 65 62 66 69 65 73 79 76 74 78 82 79 75 71 69 63 70 80 89 93 93 91 91 89
156 152 138 116 104 101 94 94 92 91 92 89 80 75 85 92 88 79 69 63 60 62 70 76 76 86 80 81 76 76 77 78 76 73 67 66 72 81 88 90 92 92 92
160 137 141 128 104 106 102 100 95 94 95 87 83 78 80 88 91 88 78 66 58 62 70 76 69 80 84 81 74 67 69 71 75 73 71 70 72 75 81 84 84 88 89
119 126 132 122 111 106 104 103 101 98 96 91 90 86 81 83 88 87 82 72 72 74 73 80 73 69 78 81 76 62 58 64 66 73 74 72 74 77 79 82 77 77 79
119 120 113 113 120 108 97 95 95 94 93 95 94 90 84 85 88 85 79 74 81 76 70 80 62 71 93 91 96 77 57 56 53 66 68 69 75 83 83 80 76 74 75
102 101 97 88 87 90 90 84 78 79 77 82 88 91 96 95 95 90 79 68 73 76 66 73 69 53 71 105 101 72 49 47 51 53 61 67 71 79 85 85 79 71 68
80 83 82 80 78 91 98 111 114 113 82 68 80 93 102 99 104 100 91 79 72 74 64 86 82 73 46 62 101 68 27 40 51 39 49 72 69 71 77 78 78 77 65
98 94 88 84 81 93 92 115 129 128 100 52 53 69 96 109 118 118 115 111 96 81 63 72 80 97 52 35 127 131 124 337 360 1 23 77 68 69 64 61 66 69 62
99 111 117 81 74 68 67 75 66 59 47 34 11 358 354 142 158 140 137 132 126 125 136 138 124 123 158 327 11 141 157 208 234 306 304 90 99 80 61 53 41 36 45
189 120 99 93 79 73 87 94 112 121 193 264 273 296 323 257 189 168 157 153 155 151 159 181 148 146 152 184 325 353 122 156 168 224 270 264 256 237 270 314 308 285 269
123 111 110 91 73 65 75 96 108 99 302 322 357 332 320 313 255 203 174 168 175 178 188 186 171 172 172 184 191 309 46 50 125 176 227 245 274 251 257 259 244 245 243
43 50 60 84 58 57 68 79 84 94 10 5 333 294 287 299 303 275 230 196 198 196 202 201 192 188 192 187 191 201 211 203 192 180 209 223 245 259 263 247 229 229 233
Height
1522 1524 1526 1527 1529 1530 1532 1532 1533 1534 1535 1536 1537 1538 1538 1539 1540 1541 1541 1542 1542 1543 1544 1544 1545 1545 1546 1546 1547 1547 1548 1548 1548 1548 1549 1549 1550 1550 1550 1550 1551 1551 1551
1521 1524 1526 1528 1529 1531 1532 1533 1533 1534 1535 1536 1537 1538 1539 1540 1541 1542 1542 1543 1544 1544 1545 1545 1546 1546 1547 1548 1548 1549 1549 1550 1550 1550 1551 1551 1552 1552 1552 1553 1553 1553 1554
1521 1523 1526 1528 1529 1531 1532 1533 1534 1535 1536 1537 1538 1539 1540 1541 1541 1542 1543 1544 1544 1545 1546 1546 1547 1548 1548 1549 1550 1550 1551 1551 1552 1552 1553 1553 1553 1554 1554 1554 1555 1555 1556
1521 1523 1525 1528 1529 1531 1532 1533 1534 1535 1536 1537 1538 1539 1540 1541 1542 1543 1544 1544 1545 1546 1547 1548 1548 1549 1549 1550 1551 1552 1552 1553 1553 1554 1554 1555 1555 1556 1556 1556 1557 1557 1558
1521 1523 1525 1527 1529 1531 1532 1533 1534 1535 1537 1538 1539 1540 1541 1541 1542 1543 1544 1545 1546 1546 1547 1548 1549 1550 1551 1551 1552 1553 1553 1554 1555 1555 1556 1556 1557 1557 1558 1558 1559 1559 1560
1521 1523 1526 1527 1529 1531 1532 1533 1534 1536 1537 1538 1539 1540 1540 1541 1542 1543 1544 1545 1546 1547 1548 1549 1550 1551 1551 1552 1553 1554 1554 1555 1556 1557 1557 1558 1558 1559 1559 1560 1560 1561 1561
1521 1524 1526 1527 1529 1531 1532 1533 1534 1536 1537 1538 1539 1540 1541 1541 1542 1544 1545 1545 1546 1547 1548 1549 1550 1551 1552 1553 1554 1555 1555 1556 1557 1558 1559 1559 1560 1560 1561 1561 1562 1562 1563
1522 1524 1526 1527 1529 1530 1532 1533 1534 1536 1537 1538 1539 1540 1541 1542 1542 1543 1545 1546 1547 1548 1549 1550 1551 1551 1553 1554 1554 1555 1556 1557 1558 1559 1560 1560 1561 1562 1562 1563 1563 1563 1564
1522 1524 1525 1527 1528 1530 1531 1532 1534 1535 1536 1537 1538 1540 1541 1541 1542 1543 1544 1545 1546 1548 1549 1550 1551 1551 1552 1554 1555 1556 1557 1558 1559 1560 1561 1561 1562 1563 1563 1563 1564 1564 1565
1522 1523 1525 1527 1528 1529 1530 1532 1533 1534 1536 1537 1538 1539 1540 1541 1542 1543 1544 1545 1546 1547 1548 1549 1551 1551 1552 1553 1555 1556 1557 1558 1559 1560 1561 1562 1563 1563 1564 1564 1565 1565 1565
1521 1523 1524 1526 1527 1529 1530 1531 1532 1534 1535 1536 1537 1538 1539 1540 1541 1542 1543 1544 1546 1547 1548 1549 1550 1551 1552 1553 1555 1556 1557 1558 1559 1561 1562 1562 1563 1564 1564 1564 1565 1566 1566
1519 1521 1523 1525 1526 1528 1529 1530 1532 1533 1534 1535 1536 1538 1539 1540 1541 1542 1543 1544 1545 1546 1547 1548 1549 1551 1552 1553 1554 1555 1557 1558 1559 1560 1561 1562 1563 1564 1564 1564 1565 1566 1566
1518 1520 1522 1524 1525 1527 1528 1529 1530 1532 1533 1534 1536 1537 1538 1539 1540 1541 1542 1543 1544 1545 1546 1547 1549 1550 1551 1552 1553 1554 1556 1557 1558 1560 1561 1562 1563 1563 1564 1564 1565 1566 1566
1518 1519 1521 1522 1524 1525 1527 1528 1529 1530 1532 1533 1534 1536 1537 1538 1539 1540 1541 1542 1543 1544 1545 1546 1547 1548 1550 1551 1552 1554 1555 1556 1558 1559 1560 1561 1562 1563 1563 1564 1565 1565 1566
1516 1518 1520 1521 1523 1524 1525 1527 1528 1529 1530 1532 1533 1534 1535 1536 1537 1538 1540 1541 1542 1543 1543 1544 1546 1547 1548 1550 1551 1553 1554 1555 1557 1558 1559 1560 1561 1562 1562 1563 1564 1565 1565
1515 1516 1518 1520 1521 1522 1524 1525 1526 1527 1528 1530 1531 1532 1534 1535 1536 1537 1538 1539 1540 1541 1542 1543 1544 1545 1547 1548 1550 1551 1553 1554 1555 1557 1558 1559 1560 1561 1562 1562 1563 1564 1565
1513 1515 1516 1518 1519 1521 1522 1523 1524 1525 1527 1528 1529 1530 1532 1533 1534 1535 1536 1537 1538 1539 1540 1541 1542 1544 1545 1547 1548 1550 1551 1552 1554 1555 1556 1557 1559 1560 1560 1561 1562 1563 1563
1511 1513 1514 1515 1517 1518 1520 1521 1522 1523 1525 1526 1527 1528 1530 1531 1532 1534 1534 1535 1536 1537 1538 1539 1540 1542 1543 1545 1546 1548 1549 1551 1552 1553 1554 1556 1557 1558 1559 1559 1560 1561 1562
1508 1510 1511 1513 1514 1516 1518 1519 1520 1521 1523 1524 1525 1526 1527 1528 1530 1531 1532 1533 1534 1535 1536 1537 1538 1540 1541 1542 1544 1546 1547 1548 1550 1551 1552 1553 1555 1556 1557 1558 1558 1559 1560
1506 1507 1509 1511 1512 1514 1515 1516 1518 1519 1520 1521 1523 1524 1525 1526 1527 1529 1530 1531 1531 1532 1534 1535 1536 1538 1539 1540 1542 1543 1545 1546 1547 1548 1550 1551 1552 1553 1554 1555 1556 1557 1558
1503 1504 1506 1508 1509 1511 1512 1513 1515 1516 1517 1518 1520 1521 1522 1524 1525 1526 1527 1528 1529 1530 1531 1533 1534 1535 1537 1538 1540 1541 1542 1543 1544 1546 1547 1548 1549 1550 1552 1553 1554 1554 1555
1500 1502 1503 1505 1506 1508 1510 1511 1512 1513 1514 1516 1517 1518 1519 1521 1522 1523 1524 1525 1526 1527 1528 1530 1531 1532 1534 1535 1536 1538 1539 1541 1541 1542 1544 1545 1546 1547 1549 1550 1551 1552 1552
1498 1499 1500 1502 1504 1505 1507 1508 1510 1511 1511 1513 1514 1515 1516 1517 1519 1520 1521 1522 1523 1524 1525 1526 1528 1529 1531 1532 1534 1535 1536 1536 1537 1539 1540 1542 1543 1544 1545 1547 1547 1548 1549
1496 1497 1498 1500 1501 1503 1504 1505 1506 1507 1507 1509 1511 1512 1513 1514 1516 1517 1518 1519 1520 1521 1522 1523 1524 1526 1527 1529 1530 1531 1533 1533 1534 1534 1536 1538 1539 1540 1542 1543 1544 1545 1546
1494 1495 1496 1497 1498 1499 1501 1502 1503 1504 1505 1506 1508 1508 1510 1511 1512 1513 1514 1515 1516 1517 1518 1519 1520 1522 1523 1525 1526 1527 1528 1529 1530 1531 1531 1533 1534 1536 1537 1538 1539 1540 1541
1492 1493 1494 1494 1495 1496 1497 1499 1500 1501 1502 1503 1504 1505 1506 1507 1508 1510 1511 1512 1513 1514 1514 1515 1517 1518 1519 1521 1522 1523 1525 1525 1526 1527 1527 1527 1529 1531 1532 1534 1535 1536 1537